Location: Alvediston
(51.0078°N, 2.0364°W)
Time: 04:25:30
(UTC+00:00)

H-2A R/B - Pass Details

Date: 27 February 2020
Orbit: 733 x 837 km, 98.2° (Epoch: 30 March)

Event Time Altitude Azimuth Distance (km) Brightness Sun altitude
Rises 18:25:12 0° 130° (SE) 3,360 4.9 -7.1°
Reaches altitude 10° 18:27:46 10° 121° (ESE) 2,439 4.1 -7.5°
Maximum altitude 18:32:27 31° 61° (ENE) 1,449 3.0 -8.3°
Drops below altitude 10° 18:37:09 10° 2° (N) 2,464 4.6 -9.0°
Sets 18:39:46 0° 352° (N) 3,400 5.4 -9.4°
